Vertical_Velocity
0 -1 -3 -3 -3 -2 -2 -3 -3 -0 -1 -0 -2 -2 -1 -1 -0 1 -0 -1 -2 -3
-2 -2 -1 -1 -2 -1 -2 -2 -0 -2 1 -1 -1 -0 0 -1 -1 0 -3 -2 -2 -2
-1 -0 0 1 0 -1 -1 -2 -1 -0 1 -1 -1 -1 1 -2 -2 -2 -2 -2 -2 -2
0 0 -1 -1 -1 -0 -0 1 -1 -1 -2 -1 -1 -2 -2 -2 -2 -0 -0 -1 1 -2
-0 -0 -0 -1 -1 -1 0 -1 -2 -2 -0 -0 -0 -1 -0 1 1 1 0 0 1 -1
-1 -2 -1 -1 -0 -1 0 -0 0 0 0 -1 -1 -1 -1 -0 -0 1 0 -2 -1 -2
-0 -1 -0 -0 -0 -0 -1 0 1 0 -0 -1 -1 -2 -2 0 1 -1 -2 -2 -2 -4
-1 -1 -0 -1 -0 0 1 0 0 1 0 -0 0 -0 -1 -0 0 -3 -2 -1 -1 -0
0 -0 0 1 2 2 1 1 0 1 1 -2 -2 -0 -2 -1 -1 -2 -1 -2 -5 -1
0 -0 -1 -0 -0 -1 -1 -0 -1 -1 -0 -1 -2 -1 -1 -3 -2 -0 -4 -3 -2 3
0 1 1 -0 -1 -1 -0 -0 0 1 3 2 -3 -2 -3 -2 -1 2 -3 -3 4 -3
-0 1 -0 -1 1 1 2 -0 -1 -2 -1 1 -3 -1 -3 0 -3 -0 2 -3 -0 -4
-0 1 1 2 0 -2 -1 1 -1 -2 -3 0 1 0 -3 -2 -2 2 -1 -2 -5 -1
1 1 -0 -0 -2 -0 -1 -1 -3 -2 -1 -2 0 2 1 -1 -0 -3 -0 -2 1 -0
Height
5770 5767 5764 5760 5757 5753 5750 5747 5743 5739 5736 5734 5732 5729 5726 5724 5720 5718 5715 5711 5708 5704
5760 5756 5752 5748 5745 5742 5738 5735 5732 5729 5726 5723 5720 5717 5714 5712 5708 5705 5702 5699 5695 5691
5748 5744 5741 5737 5734 5730 5727 5724 5721 5718 5714 5712 5708 5705 5702 5699 5696 5692 5689 5685 5680 5676
5735 5732 5728 5725 5722 5718 5715 5712 5709 5706 5703 5699 5696 5692 5689 5686 5682 5677 5673 5669 5664 5659
5723 5720 5716 5713 5709 5706 5704 5700 5698 5694 5690 5686 5682 5679 5675 5670 5666 5662 5657 5653 5648 5643
5710 5707 5704 5701 5697 5694 5690 5687 5683 5680 5676 5671 5668 5664 5660 5656 5651 5646 5642 5637 5633 5628
5697 5694 5690 5687 5683 5680 5677 5673 5669 5665 5661 5657 5652 5648 5644 5641 5636 5632 5627 5622 5617 5612
5684 5680 5676 5672 5669 5665 5662 5658 5654 5649 5645 5641 5637 5633 5629 5625 5620 5615 5610 5605 5601 5596
5668 5664 5661 5657 5654 5650 5646 5642 5638 5634 5630 5626 5622 5617 5612 5608 5604 5599 5594 5590 5584 5580
5653 5649 5645 5642 5639 5635 5631 5628 5624 5620 5615 5610 5606 5602 5597 5593 5589 5584 5578 5573 5569 5564
5637 5633 5630 5627 5623 5619 5616 5612 5608 5604 5599 5594 5590 5586 5581 5577 5573 5568 5563 5558 5553 5548
5622 5619 5615 5611 5608 5604 5601 5596 5592 5587 5583 5579 5574 5570 5566 5562 5558 5553 5547 5542 5537 5531
5607 5604 5600 5597 5593 5589 5585 5581 5577 5572 5568 5564 5560 5556 5551 5547 5541 5536 5531 5526 5520 5515
5592 5589 5585 5581 5578 5573 5569 5566 5561 5557 5552 5549 5544 5539 5534 5529 5523 5519 5514 5508 5504 5499